Preview of NWS' New Version of Forecast
This preview is not operational and should not be used for support decisions.

Regional Weather Roundup (RWR)

Issued by National Weather Service (NWS)

                            
000
ASUS43 KTOP 231759
RWRKS 

WEATHER ROUNDUP FOR KANSAS
NATIONAL WEATHER SERVICE GOODLAND KS
100 PM CDT FRI AUG 23 2019

NOTE:  "FAIR" INDICATES FEW OR NO CLOUDS BELOW 12,000 FEET WITH NO
SIGNIFICANT WEATHER AND/OR OBSTRUCTIONS TO VISIBILITY.

KSZ001>006-013>018-027>032-041>047-231900-
NORTHWEST KANSAS
  
CITY           SKY/WX    TMP DP  RH WIND       PRES   REMARKS
GOODLAND       CLOUDY    72  65  78 S14       30.04R                  
6HR MIN TEMP:  63; 6HR MAX TEMP:  73;                                

HAYS           CLOUDY    73  68  84 N16       29.90R                  
RUSSELL        CLOUDY    75  68  78 E15       30.02S                  
6HR MIN TEMP:  67; 6HR MAX TEMP:  75; 6HR PCP:  0.04;                

$$

KSZ061>065-074>080-084>089-231900-
SOUTHWEST KANSAS
  
CITY           SKY/WX    TMP DP  RH WIND       PRES   REMARKS
DODGE CITY     SUNNY     83  68  60 S23G31    30.00F                  
6HR MIN TEMP:  68; 6HR MAX TEMP:  83;                                

GARDEN CITY    PTSUNNY   77  66  68 SE23G35   30.00S                  
6HR MIN TEMP:  66; 6HR MAX TEMP:  77;                                

GREAT BEND     MOSUNNY   78  68  71 SE20G26   30.00S                  
LIBERAL        MOSUNNY   84  68  58 SE22      30.00F                  
$$

KSZ066>073-081>083-090>101-231900-
SOUTHEAST KANSAS
  
CITY           SKY/WX    TMP DP  RH WIND       PRES   REMARKS
CHANUTE        CLOUDY    81  70  69 MISG      30.04F                  
6HR MIN TEMP:  72; 6HR MAX TEMP:  82;                                

COFFEYVILLE    CLOUDY    74  70  87 SE6       30.02F                  
6HR MIN TEMP:  71; 6HR MAX TEMP:  75; 6HR PCP: TRACE;                

HUTCHINSON     PTSUNNY   81  68  64 SE14G28   29.99F                  
6HR MIN TEMP:  69; 6HR MAX TEMP:  83;                                

MEDICINE LODGE   N/A     75  69  81 SE8G18    29.99F                  
NEWTON         PTSUNNY   77  68  73 E15       30.02F                  
PARSONS        CLOUDY    75  70  84 S5        30.05F                  
6HR MIN TEMP:  71; 6HR MAX TEMP:  77;                                

WICHITA INTL   CLOUDY    79  68  69 SE16      30.01F                  
6HR MIN TEMP:  71; 6HR MAX TEMP:  79;                                

WICHITA JABRA  PTSUNNY   78  69  73 E13G21    30.02F                  
6HR MIN TEMP:  69; 6HR MAX TEMP:  79;                                

WICHITA MCCONL CLOUDY    77  67  71 E9        30.02                   
WINFIELD       CLOUDY    77  70  79 E12       30.02F                  
6HR MIN TEMP:  69; 6HR MAX TEMP:  77;                                

$$

KSZ007>012-019>026-033>040-048>060-102>105-231900-
NORTHEAST KANSAS
  
CITY           SKY/WX    TMP DP  RH WIND       PRES   REMARKS
CONCORDIA      MOSUNNY   78  70  76 E14G25    30.02F                  
6HR MIN TEMP:  71; 6HR MAX TEMP:  78;                                

EMPORIA        CLOUDY    79  72  79 SE8       30.04F                  
6HR MIN TEMP:  71; 6HR MAX TEMP:  80;                                

LAWRENCE       PTSUNNY   83  68  60 E13       30.06F                  
6HR MIN TEMP:  72; 6HR MAX TEMP:  85;                                

MANHATTAN      PTSUNNY   81  71  71 E10       30.03F                  
6HR MIN TEMP:  72; 6HR MAX TEMP:  82;                                

OLATHE IND     PTSUNNY   80  68  66 SE12G22   30.08F                  
6HR MIN TEMP:  70; 6HR MAX TEMP:  80;                                

OLATHE EXE     PTSUNNY   79  69  71 SE12G21   30.07F                  
6HR MIN TEMP:  69; 6HR MAX TEMP:  80;                                

SALINA         MOSUNNY   80  68  66 E17G32    29.97F                  
6HR MIN TEMP:  69; 6HR MAX TEMP:  80;                                

TOPEKA BILLARD MOSUNNY   81  68  64 E12       30.06F                  
6HR MIN TEMP:  71; 6HR MAX TEMP:  82;                                

TOPEKA FORBES  PTSUNNY   82  69  64 E13       30.06F                  
6HR MIN TEMP:  72; 6HR MAX TEMP:  83;                                

$$